WJA247 CYHZ-CYUL

Flight info

Callsign WJA247
Flight time N/A
Altitude 36000
Route DUSEN DCT TOPPS DCT KEBIG ROCKT3
Aircraft B738/M-SDE2E3FGHIRWXY/LB1

Departure

Time 2025-12-31 04:35
Airport Halifax / Stanfield International Airport (CYHZ)

Arrival

Time N/A
Airport Montreal / Pierre Elliott Trudeau International Airport (CYUL)
Time Latitude Longitude Altitude Speed Heading
2025-12-31 04:18 44.88642 -63.51367 451 ft 0 kts 260°
2025-12-31 04:27 44.88645 -63.51348 451 ft 2 kts 259°
2025-12-31 04:27 44.88651 -63.51304 448 ft 2 kts 259°
2025-12-31 04:28 44.88645 -63.51263 450 ft 2 kts 315°
2025-12-31 04:28 44.88632 -63.51250 448 ft 2 kts 346°
2025-12-31 04:28 44.88626 -63.51249 449 ft 0 kts 350°
2025-12-31 04:29 44.88634 -63.51251 448 ft 3 kts 350°
2025-12-31 04:29 44.88688 -63.51229 451 ft 5 kts 64°
2025-12-31 04:30 44.88705 -63.51092 451 ft 5 kts 79°
2025-12-31 04:31 44.88717 -63.50999 451 ft 6 kts 79°
2025-12-31 04:31 44.88814 -63.50835 450 ft 18 kts 36°
2025-12-31 04:31 44.88934 -63.50712 449 ft 24 kts 36°
2025-12-31 04:32 44.88954 -63.50487 450 ft 7 kts 125°
2025-12-31 04:32 44.88921 -63.50436 450 ft 7 kts 154°
2025-12-31 04:33 44.88830 -63.50490 450 ft 13 kts 215°
2025-12-31 04:33 44.87822 -63.51495 455 ft 157 kts 217°
2025-12-31 04:34 44.84668 -63.54806 2120 ft 218 kts 216°
2025-12-31 04:35 44.82210 -63.57407 3335 ft 221 kts 213°
2025-12-31 04:35 44.79698 -63.59744 4444 ft 218 kts 213°
2025-12-31 04:35 44.78421 -63.60885 4491 ft 221 kts 213°
2025-12-31 04:36 44.75806 -63.63218 5865 ft 220 kts 214°
2025-12-31 04:36 44.74500 -63.67086 7488 ft 243 kts 261°
2025-12-31 04:37 44.75724 -63.71780 9067 ft 276 kts 292°
2025-12-31 04:37 44.77999 -63.76282 10384 ft 291 kts 295°
2025-12-31 04:38 44.81911 -63.83994 11334 ft 343 kts 296°
2025-12-31 04:39 44.84699 -63.89498 12875 ft 348 kts 296°
2025-12-31 04:39 44.87522 -63.95118 14277 ft 356 kts 296°
2025-12-31 04:39 44.88954 -63.97986 14912 ft 361 kts 296°
2025-12-31 04:40 44.91874 -64.03846 16244 ft 371 kts 297°
2025-12-31 04:40 44.94895 -64.09918 17485 ft 382 kts 297°
2025-12-31 04:41 44.97963 -64.16105 18417 ft 390 kts 296°
2025-12-31 04:41 45.00104 -64.22945 18746 ft 378 kts 275°
2025-12-31 04:42 45.00958 -64.30179 20157 ft 372 kts 270°
2025-12-31 04:42 45.01729 -64.37464 21194 ft 380 kts 270°
2025-12-31 04:43 45.02937 -64.48660 22816 ft 389 kts 270°
2025-12-31 04:43 45.03352 -64.52465 23267 ft 393 kts 270°
2025-12-31 04:44 45.04194 -64.60158 24177 ft 396 kts 270°
2025-12-31 04:44 45.05039 -64.67913 24998 ft 401 kts 270°
2025-12-31 04:46 45.08460 -64.99870 27989 ft 421 kts 269°
2025-12-31 04:48 45.11905 -65.32847 31222 ft 416 kts 268°
2025-12-31 04:50 45.15102 -65.64483 34205 ft 402 kts 266°
2025-12-31 04:52 45.18197 -65.96049 35467 ft 410 kts 267°
2025-12-31 04:54 45.21209 -66.27551 35499 ft 402 kts 266°
2025-12-31 04:56 45.24137 -66.59233 35507 ft 409 kts 267°
2025-12-31 04:59 45.27410 -66.95788 35517 ft 418 kts 268°